,,,PA_Meas_PMT16A,,PR_Meas_QMR101_102,,RH_Meas_QMH101,,SR_Meas_QMS101,,TA_Meas_QMH101,,GenWind,,GenWind,
date,time,status,PA,status,PR,status,RH,status,SR,status,TA,status,DirAvg,status,SpdAvg,
2009-12-10, 00:00:04,VALID,999.247,VALID,0,VALID,93.0051,VALID,0,VALID,22.3941,VALID,44,VALID,0,
2009-12-10, 00:01:04,VALID,999.237,VALID,0,VALID,93.0661,VALID,0,VALID,22.3551,VALID,44,VALID,0,
2009-12-10, 00:02:04,VALID,999.209,VALID,0,VALID,93.0814,VALID,0,VALID,22.3551,VALID,44,VALID,0,
2009-12-10, 00:03:04,VALID,999.209,VALID,0,VALID,93.3179,VALID,0,VALID,22.3568,VALID,44,VALID,0,
2009-12-10, 00:04:04,VALID,999.184,VALID,0,VALID,93.4705,VALID,0,VALID,22.4136,VALID,44,VALID,0.359375,
2009-12-10, 00:05:04,VALID,999.195,VALID,0,VALID,93.562,VALID,0,VALID,22.4933,VALID,44,VALID,0.439453,
2009-12-10, 00:06:04,VALID,999.199,VALID,0,VALID,93.44,VALID,0,VALID,22.4738,VALID,44,VALID,0.321484,
2009-12-10, 00:07:04,VALID,999.211,VALID,0,VALID,93.5391,VALID,0,VALID,22.4933,VALID,39,VALID,0.428516,
2009-12-10, 00:08:05,VALID,999.22,VALID,0,VALID,93.501,VALID,0,VALID,22.4738,VALID,24,VALID,0.441406,
2009-12-10, 00:09:05,VALID,999.189,VALID,0,VALID,93.5468,VALID,0,VALID,22.4738,VALID,24,VALID,0.420703,
2009-12-10, 00:10:05,VALID,999.167,VALID,0,VALID,93.501,VALID,0,VALID,22.4721,VALID,24,VALID,0.506641,
2009-12-10, 00:11:05,VALID,999.16,VALID,0,VALID,93.4552,VALID,0,VALID,22.4526,VALID,27,VALID,0.657031,
2009-12-10, 00:12:05,VALID,999.134,VALID,0,VALID,93.562,VALID,0,VALID,22.4738,VALID,27,VALID,0.685938,
2009-12-10, 00:13:05,VALID,999.118,VALID,0,VALID,93.5849,VALID,0,VALID,22.4916,VALID,30,VALID,0.673828,
2009-12-10, 00:14:05,VALID,999.105,VALID,0,VALID,93.6383,VALID,0,VALID,22.5323,VALID,34,VALID,0.589844,
2009-12-10, 00:15:05,VALID,999.107,VALID,0,VALID,93.6307,VALID,0,VALID,22.5501,VALID,34,VALID,0.505078,
2009-12-10, 00:16:05,VALID,999.109,VALID,0,VALID,93.5391,VALID,0,VALID,22.5306,VALID,34,VALID,0.571484,
2009-12-10, 00:17:05,VALID,999.097,VALID,0,VALID,93.5086,VALID,0,VALID,22.5323,VALID,40,VALID,0.791016,
2009-12-10, 00:18:05,VALID,999.114,VALID,0,VALID,93.4247,VALID,0,VALID,22.4331,VALID,58,VALID,0.982813,
2009-12-10, 00:19:05,VALID,999.1,VALID,0,VALID,93.3103,VALID,0,VALID,22.3746,VALID,60,VALID,0.708203,
2009-12-10, 00:20:05,VALID,999.098,VALID,0,VALID,93.2416,VALID,0,VALID,22.3161,VALID,60,VALID,0.276172,
2009-12-10, 00:21:05,VALID,999.091,VALID,0,VALID,93.2416,VALID,0,VALID,22.2983,VALID,60,VALID,0.153516,
2009-12-10, 00:22:05,VALID,999.109,VALID,0,VALID,93.2416,VALID,0,VALID,22.2381,VALID,60,VALID,0,
2009-12-10, 00:23:05,VALID,999.092,VALID,0,VALID,93.3179,VALID,0,VALID,22.2381,VALID,60,VALID,0,
2009-12-10, 00:24:05,VALID,999.109,VALID,0,VALID,93.3637,VALID,0,VALID,22.2592,VALID,60,VALID,0.135937,
2009-12-10, 00:25:05,VALID,999.116,VALID,0,VALID,93.4018,VALID,0,VALID,22.2381,VALID,62,VALID,0.757813,
2009-12-10, 00:26:05,VALID,999.088,VALID,0,VALID,93.4171,VALID,0,VALID,22.2576,VALID,65,VALID,0.855859,
2009-12-10, 00:27:05,VALID,999.101,VALID,0,VALID,93.356,VALID,0,VALID,22.2592,VALID,65,VALID,0.772656,
2009-12-10, 00:28:05,VALID,999.106,VALID,0,VALID,93.2645,VALID,0,VALID,22.2202,VALID,65,VALID,0.548437,
2009-12-10, 00:29:05,VALID,999.097,VALID,0,VALID,93.3026,VALID,0,VALID,22.1812,VALID,65,VALID,0.342578,
2009-12-10, 00:30:05,VALID,999.095,VALID,0,VALID,93.3331,VALID,0,VALID,22.16,VALID,65,VALID,0,
2009-12-10, 00:31:05,VALID,999.082,VALID,0,VALID,93.4171,VALID,0,VALID,22.1812,VALID,65,VALID,0.00859375,
2009-12-10, 00:32:05,VALID,999.112,VALID,0,VALID,93.44,VALID,0,VALID,22.1617,VALID,118,VALID,0.844922,
2009-12-10, 00:33:05,VALID,999.049,VALID,0,VALID,93.6917,VALID,0,VALID,22.2771,VALID,117,VALID,0.782031,
2009-12-10, 00:34:05,VALID,999.056,VALID,0,VALID,93.8825,VALID,0,VALID,22.4136,VALID,113,VALID,0.700391,
2009-12-10, 00:35:05,VALID,999.037,VALID,0,VALID,93.8138,VALID,0,VALID,22.5111,VALID,102,VALID,0.5875,
2009-12-10, 00:36:05,VALID,999.05,VALID,0,VALID,93.8062,VALID,0,VALID,22.5519,VALID,95,VALID,0.61875,
2009-12-10, 00:37:05,VALID,998.997,VALID,0,VALID,93.7833,VALID,0,VALID,22.5892,VALID,93,VALID,0.483594,
2009-12-10, 00:38:05,VALID,999.005,VALID,0,VALID,93.6841,VALID,0,VALID,22.5501,VALID,75,VALID,0.352344,
2009-12-10, 00:39:05,VALID,998.974,VALID,0,VALID,93.646,VALID,0,VALID,22.5111,VALID,75,VALID,0.332031,
2009-12-10, 00:40:05,VALID,998.938,VALID,0,VALID,93.5773,VALID,0,VALID,22.4933,VALID,75,VALID,0.0792969,
2009-12-10, 00:41:05,VALID,998.94,VALID,0,VALID,93.5315,VALID,0,VALID,22.4136,VALID,75,VALID,0,
2009-12-10, 00:42:05,VALID,998.888,VALID,0,VALID,93.5163,VALID,0,VALID,22.4348,VALID,75,VALID,0,
2009-12-10, 00:43:05,VALID,998.887,VALID,0,VALID,93.4781,VALID,0,VALID,22.3746,VALID,75,VALID,0,
2009-12-10, 00:44:05,VALID,998.897,VALID,0,VALID,93.5391,VALID,0,VALID,22.3746,VALID,82,VALID,0.435937,
2009-12-10, 00:45:05,VALID,998.866,VALID,0,VALID,93.5086,VALID,0,VALID,22.3746,VALID,89,VALID,0.550391,
2009-12-10, 00:46:05,VALID,998.842,VALID,0,VALID,93.4552,VALID,0,VALID,22.3746,VALID,90,VALID,0.569141,
2009-12-10, 00:47:05,VALID,998.825,VALID,0,VALID,93.4476,VALID,0,VALID,22.3551,VALID,95,VALID,0.5375,
2009-12-10, 00:48:05,VALID,998.829,VALID,0,VALID,93.6307,VALID,0,VALID,22.4136,VALID,95,VALID,0.413281,
2009-12-10, 00:49:05,VALID,998.832,VALID,0,VALID,93.4857,VALID,0,VALID,22.3958,VALID,94,VALID,0.573047,
2009-12-10, 00:50:05,VALID,998.844,VALID,0,VALID,93.4628,VALID,0,VALID,22.3568,VALID,94,VALID,0.0648438,
2009-12-10, 00:51:05,VALID,998.842,VALID,0,VALID,93.3637,VALID,0,VALID,22.3178,VALID,94,VALID,0,
2009-12-10, 00:52:05,VALID,998.855,VALID,0,VALID,93.4094,VALID,0,VALID,22.2592,VALID,94,VALID,0,
2009-12-10, 00:53:05,VALID,998.844,VALID,0,VALID,93.4781,VALID,0,VALID,22.2771,VALID,94,VALID,0,
2009-12-10, 00:54:05,VALID,998.851,VALID,0,VALID,93.4857,VALID,0,VALID,22.3161,VALID,70,VALID,0,
2009-12-10, 00:55:05,VALID,998.829,VALID,0,VALID,93.501,VALID,0,VALID,22.3178,VALID,22,VALID,0,
2009-12-10, 00:56:05,VALID,998.796,VALID,0,VALID,93.5849,VALID,0.112286,VALID,22.3356,VALID,22,VALID,0,
2009-12-10, 00:57:05,VALID,998.805,VALID,0,VALID,93.4857,VALID,0,VALID,22.3178,VALID,22,VALID,0.936719,
2009-12-10, 00:58:05,VALID,998.791,VALID,0,VALID,93.4552,VALID,0,VALID,22.2983,VALID,22,VALID,1.01641,
2009-12-10, 00:59:05,VALID,998.799,VALID,0,VALID,93.3408,VALID,0,VALID,22.2397,VALID,22,VALID,0.910547,
2009-12-10, 01:00:05,VALID,998.833,VALID,0,VALID,93.356,VALID,0,VALID,22.1812,VALID,18,VALID,0.853125,
2009-12-10, 01:01:05,VALID,998.812,VALID,0,VALID,93.3866,VALID,0,VALID,22.1617,VALID,12,VALID,0.998438,
2009-12-10, 01:02:05,VALID,998.785,VALID,0,VALID,93.4476,VALID,0,VALID,22.1405,VALID,3,VALID,0.653516,
2009-12-10, 01:03:05,VALID,998.761,VALID,0,VALID,93.4094,VALID,0,VALID,22.1405,VALID,7,VALID,0.457422,
2009-12-10, 01:04:05,VALID,998.757,VALID,0,VALID,93.3866,VALID,0,VALID,22.1227,VALID,23,VALID,0.623047,
2009-12-10, 01:05:05,VALID,998.75,VALID,0,VALID,93.4476,VALID,0,VALID,22.1227,VALID,23,VALID,0.700781,
2009-12-10, 01:06:05,VALID,998.733,VALID,0,VALID,93.3026,VALID,0,VALID,22.0642,VALID,23,VALID,0.512891,
2009-12-10, 01:07:05,VALID,998.755,VALID,0,VALID,93.1805,VALID,0,VALID,21.9862,VALID,23,VALID,0.442578,
2009-12-10, 01:08:05,VALID,998.758,VALID,0,VALID,93.1424,VALID,0,VALID,21.9082,VALID,23,VALID,0.476172,
2009-12-10, 01:09:05,VALID,998.782,VALID,0,VALID,93.2034,VALID,0,VALID,21.848,VALID,23,VALID,0.685547,
2009-12-10, 01:10:05,VALID,998.749,VALID,0,VALID,93.2645,VALID,0,VALID,21.8496,VALID,23,VALID,0.769531,
2009-12-10, 01:11:05,VALID,998.759,VALID,0,VALID,93.5239,VALID,0,VALID,21.9082,VALID,23,VALID,0.883594,
2009-12-10, 01:12:05,VALID,998.716,VALID,0,VALID,93.6383,VALID,0,VALID,21.9667,VALID,23,VALID,0.855859,
2009-12-10, 01:13:05,VALID,998.717,VALID,0,VALID,93.7299,VALID,0,VALID,22.0252,VALID,24,VALID,0.723437,
2009-12-10, 01:14:05,VALID,998.708,VALID,0,VALID,93.6688,VALID,0,VALID,22.0235,VALID,29,VALID,0.7125,
2009-12-10, 01:15:05,VALID,998.657,VALID,0,VALID,93.7146,VALID,0,VALID,22.0252,VALID,31,VALID,0.760938,
2009-12-10, 01:16:05,VALID,998.66,VALID,0,VALID,93.768,VALID,0,VALID,22.0642,VALID,31,VALID,0.851172,
2009-12-10, 01:17:05,VALID,998.689,VALID,0,VALID,93.7299,VALID,0,VALID,22.1032,VALID,31,VALID,0.942187,
2009-12-10, 01:18:05,VALID,998.662,VALID,0,VALID,93.5773,VALID,0,VALID,22.0447,VALID,31,VALID,0.908203,
2009-12-10, 01:19:05,VALID,998.672,VALID,0,VALID,93.5163,VALID,0,VALID,21.9862,VALID,24,VALID,0.973437,
2009-12-10, 01:20:05,VALID,998.665,VALID,0,VALID,93.5773,VALID,0,VALID,21.9862,VALID,23,VALID,0.975781,
2009-12-10, 01:21:05,VALID,998.646,VALID,0,VALID,93.5468,VALID,0,VALID,21.9862,VALID,23,VALID,0.846875,
2009-12-10, 01:22:05,VALID,998.656,VALID,0,VALID,93.5697,VALID,0,VALID,22.0057,VALID,23,VALID,0.779688,
2009-12-10, 01:23:05,VALID,998.65,VALID,0,VALID,93.5849,VALID,0,VALID,22.0057,VALID,23,VALID,0.758203,
2009-12-10, 01:24:05,VALID,998.667,VALID,0,VALID,93.501,VALID,0,VALID,22.0057,VALID,23,VALID,0.636328,
2009-12-10, 01:25:05,VALID,998.677,VALID,0,VALID,93.4323,VALID,0,VALID,21.9472,VALID,23,VALID,0.377734,
2009-12-10, 01:26:05,VALID,998.675,VALID,0,VALID,93.3484,VALID,0,VALID,21.8692,VALID,23,VALID,0.239844,
2009-12-10, 01:27:05,VALID,998.669,VALID,0,VALID,93.3637,VALID,0,VALID,21.8301,VALID,23,VALID,0.479297,
2009-12-10, 01:28:05,VALID,998.673,VALID,0,VALID,93.5468,VALID,0,VALID,21.8887,VALID,23,VALID,0.488672,
2009-12-10, 01:29:05,VALID,998.676,VALID,0,VALID,93.5849,VALID,0,VALID,21.9472,VALID,23,VALID,0.572266,
2009-12-10, 01:30:05,VALID,998.701,VALID,0,VALID,93.5926,VALID,0,VALID,21.9472,VALID,23,VALID,0.705078,
2009-12-10, 01:31:05,VALID,998.707,VALID,0,VALID,93.6307,VALID,0,VALID,21.965,VALID,23,VALID,0.68125,
2009-12-10, 01:32:05,VALID,998.677,VALID,0,VALID,93.4781,VALID,0,VALID,21.8887,VALID,33,VALID,0.575781,
2009-12-10, 01:33:05,VALID,998.667,VALID,0,VALID,93.6002,VALID,0,VALID,21.9277,VALID,31,VALID,0.530469,
2009-12-10, 01:34:05,VALID,998.671,VALID,0,VALID,93.5163,VALID,0,VALID,21.9082,VALID,27,VALID,0.524219,
2009-12-10, 01:35:05,VALID,998.671,VALID,0,VALID,93.5697,VALID,0,VALID,21.8887,VALID,18,VALID,0.603906,
2009-12-10, 01:36:05,VALID,998.684,VALID,0,VALID,93.6536,VALID,0,VALID,21.9277,VALID,18,VALID,0.560547,
2009-12-10, 01:37:05,VALID,998.67,VALID,0,VALID,93.7909,VALID,0,VALID,22.0057,VALID,18,VALID,0.687891,
2009-12-10, 01:38:05,VALID,998.691,VALID,0,VALID,93.7146,VALID,0,VALID,22.0447,VALID,20,VALID,0.814453,
2009-12-10, 01:39:05,VALID,998.679,VALID,0,VALID,93.6688,VALID,0,VALID,22.0252,VALID,20,VALID,1.00312,
2009-12-10, 01:40:05,VALID,998.682,VALID,0,VALID,93.5391,VALID,0,VALID,21.926,VALID,20,VALID,0.877734,
2009-12-10, 01:41:05,VALID,998.67,VALID,0,VALID,93.501,VALID,0,VALID,21.8887,VALID,20,VALID,0.865234,
2009-12-10, 01:42:05,VALID,998.698,VALID,0,VALID,93.5697,VALID,0,VALID,21.8675,VALID,23,VALID,0.753906,
2009-12-10, 01:43:05,VALID,998.665,VALID,0,VALID,93.707,VALID,0,VALID,21.9277,VALID,23,VALID,0.582422,
2009-12-10, 01:44:05,VALID,998.7,VALID,0,VALID,93.6536,VALID,0,VALID,21.9082,VALID,23,VALID,0.474609,
2009-12-10, 01:45:05,VALID,998.708,VALID,0,VALID,93.5773,VALID,0,VALID,21.9277,VALID,23,VALID,0.653516,
2009-12-10, 01:46:05,VALID,998.677,VALID,0,VALID,93.4857,VALID,0,VALID,21.8496,VALID,23,VALID,0.535156,
2009-12-10, 01:47:05,VALID,998.69,VALID,0,VALID,93.646,VALID,0,VALID,21.848,VALID,23,VALID,0.564062,
2009-12-10, 01:48:05,VALID,998.688,VALID,0,VALID,93.7223,VALID,0,VALID,21.8887,VALID,23,VALID,0.471094,
2009-12-10, 01:49:05,VALID,998.655,VALID,0,VALID,93.7223,VALID,0,VALID,21.9667,VALID,23,VALID,0.384375,
2009-12-10, 01:50:05,VALID,998.64,VALID,0,VALID,93.7604,VALID,0,VALID,21.9667,VALID,23,VALID,0.3375,
2009-12-10, 01:51:05,VALID,998.603,VALID,0,VALID,93.7451,VALID,0,VALID,22.0057,VALID,23,VALID,0,
2009-12-10, 01:52:05,VALID,998.593,VALID,0,VALID,93.707,VALID,0,VALID,22.004,VALID,23,VALID,0,
2009-12-10, 01:53:05,VALID,998.567,VALID,0,VALID,93.768,VALID,0,VALID,22.0235,VALID,23,VALID,0.910547,
2009-12-10, 01:54:05,VALID,998.548,VALID,0,VALID,93.7146,VALID,0,VALID,22.0447,VALID,23,VALID,1.18359,
2009-12-10, 01:55:05,VALID,998.554,VALID,0,VALID,93.5239,VALID,0,VALID,21.9667,VALID,30,VALID,1.24258,
2009-12-10, 01:56:05,VALID,998.567,VALID,0,VALID,93.44,VALID,0,VALID,21.9082,VALID,31,VALID,0.992578,
2009-12-10, 01:57:05,VALID,998.592,VALID,0,VALID,93.3484,VALID,0,VALID,21.8301,VALID,20,VALID,0.567187,
2009-12-10, 01:58:05,VALID,998.588,VALID,0,VALID,93.4934,VALID,0,VALID,21.809,VALID,1,VALID,0.794531,
2009-12-10, 01:59:05,VALID,998.591,VALID,0,VALID,93.5163,VALID,0,VALID,21.8285,VALID,356,VALID,0.466797,
2009-12-10, 02:00:05,VALID,998.628,VALID,0,VALID,93.562,VALID,0,VALID,21.848,VALID,15,VALID,0.401172,
2009-12-10, 02:01:05,VALID,998.605,VALID,0,VALID,93.6841,VALID,0,VALID,21.9277,VALID,21,VALID,0.594531,
2009-12-10, 02:02:05,VALID,998.621,VALID,0,VALID,93.6383,VALID,0,VALID,21.9667,VALID,25,VALID,0.711328,
2009-12-10, 02:03:05,VALID,998.598,VALID,0,VALID,93.5773,VALID,0,VALID,21.9472,VALID,29,VALID,0.736719,
2009-12-10, 02:04:05,VALID,998.598,VALID,0,VALID,93.5391,VALID,0,VALID,21.9277,VALID,33,VALID,0.622656,
2009-12-10, 02:05:05,VALID,998.589,VALID,0,VALID,93.4247,VALID,0,VALID,21.9065,VALID,33,VALID,0.644141,
2009-12-10, 02:06:05,VALID,998.564,VALID,0,VALID,93.3866,VALID,0,VALID,21.8675,VALID,43,VALID,0.908984,
2009-12-10, 02:07:05,VALID,998.586,VALID,0,VALID,93.2187,VALID,0,VALID,21.8301,VALID,50,VALID,0.739453,
2009-12-10, 02:08:05,VALID,998.596,VALID,0,VALID,93.0508,VALID,0,VALID,21.7521,VALID,51,VALID,0.248437,
2009-12-10, 02:09:05,VALID,998.599,VALID,0,VALID,93.0585,VALID,0,VALID,21.7131,VALID,51,VALID,0.328906,
2009-12-10, 02:10:05,VALID,998.606,VALID,0,VALID,93.2111,VALID,0,VALID,21.7115,VALID,54,VALID,0.441016,
2009-12-10, 02:11:05,VALID,998.611,VALID,0,VALID,93.3331,VALID,0,VALID,21.731,VALID,60,VALID,0.533203,
2009-12-10, 02:12:05,VALID,998.605,VALID,0,VALID,93.3789,VALID,0,VALID,21.7716,VALID,60,VALID,0.580859,
2009-12-10, 02:13:05,VALID,998.595,VALID,0,VALID,93.3331,VALID,0,VALID,21.731,VALID,60,VALID,0.503125,
2009-12-10, 02:14:05,VALID,998.605,VALID,0,VALID,93.2797,VALID,0,VALID,21.731,VALID,60,VALID,0.491797,
2009-12-10, 02:15:05,VALID,998.603,VALID,0,VALID,93.1119,VALID,0,VALID,21.6335,VALID,56,VALID,0.475391,
2009-12-10, 02:16:05,VALID,998.608,VALID,0,VALID,93.2492,VALID,0,VALID,21.6351,VALID,48,VALID,0.6625,
2009-12-10, 02:17:05,VALID,998.613,VALID,0,VALID,93.5086,VALID,0,VALID,21.7131,VALID,48,VALID,0.685547,
2009-12-10, 02:18:05,VALID,998.64,VALID,0,VALID,93.5773,VALID,0,VALID,21.7716,VALID,48,VALID,0.640625,
2009-12-10, 02:19:05,VALID,998.607,VALID,0,VALID,93.5391,VALID,0,VALID,21.77,VALID,48,VALID,0.456641,
2009-12-10, 02:20:05,VALID,998.643,VALID,0,VALID,93.4323,VALID,0,VALID,21.7521,VALID,48,VALID,0.482812,
2009-12-10, 02:21:05,VALID,998.641,VALID,0,VALID,93.356,VALID,0,VALID,21.7131,VALID,48,VALID,0.0691406,
2009-12-10, 02:22:05,VALID,998.629,VALID,0,VALID,93.3179,VALID,0,VALID,21.6741,VALID,48,VALID,0,
2009-12-10, 02:23:05,VALID,998.617,VALID,0,VALID,93.3331,VALID,0,VALID,21.6546,VALID,48,VALID,0,
2009-12-10, 02:24:05,VALID,998.612,VALID,0,VALID,93.5315,VALID,0,VALID,21.6936,VALID,48,VALID,0,
2009-12-10, 02:25:05,VALID,998.596,VALID,0,VALID,93.646,VALID,0,VALID,21.7505,VALID,48,VALID,0.315625,
2009-12-10, 02:26:05,VALID,998.592,VALID,0,VALID,93.6917,VALID,0,VALID,21.8301,VALID,48,VALID,0,
2009-12-10, 02:27:05,VALID,998.615,VALID,0,VALID,93.6612,VALID,0,VALID,21.8496,VALID,48,VALID,0,
2009-12-10, 02:28:05,VALID,998.604,VALID,0,VALID,93.6078,VALID,0,VALID,21.8496,VALID,48,VALID,0,
2009-12-10, 02:29:05,VALID,998.617,VALID,0,VALID,93.5849,VALID,0,VALID,21.8496,VALID,48,VALID,0,
2009-12-10, 02:30:05,VALID,998.599,VALID,0,VALID,93.4247,VALID,0,VALID,21.7895,VALID,48,VALID,0,
2009-12-10, 02:31:05,VALID,998.624,VALID,0,VALID,93.3713,VALID,0,VALID,21.7521,VALID,48,VALID,0,
2009-12-10, 02:32:05,VALID,998.624,VALID,0,VALID,93.2874,VALID,0,VALID,21.6936,VALID,48,VALID,0,
2009-12-10, 02:33:05,VALID,998.618,VALID,0,VALID,93.3331,VALID,0,VALID,21.6741,VALID,48,VALID,0,
2009-12-10, 02:34:05,VALID,998.602,VALID,0,VALID,93.4781,VALID,0,VALID,21.7131,VALID,48,VALID,0,
2009-12-10, 02:35:05,VALID,998.622,VALID,0,VALID,93.4934,VALID,0,VALID,21.7326,VALID,48,VALID,0,
2009-12-10, 02:36:05,VALID,998.576,VALID,0,VALID,93.4857,VALID,0,VALID,21.731,VALID,48,VALID,0,
2009-12-10, 02:37:05,VALID,998.564,VALID,0,VALID,93.4247,VALID,0,VALID,21.7115,VALID,48,VALID,0,
2009-12-10, 02:38:05,VALID,998.536,VALID,0,VALID,93.3789,VALID,0,VALID,21.653,VALID,48,VALID,0,
2009-12-10, 02:39:05,VALID,998.533,VALID,0,VALID,93.4552,VALID,0,VALID,21.6725,VALID,48,VALID,0,
2009-12-10, 02:40:05,VALID,998.538,VALID,0,VALID,93.4705,VALID,0,VALID,21.692,VALID,48,VALID,0,
2009-12-10, 02:41:05,VALID,998.539,VALID,0,VALID,93.4094,VALID,0,VALID,21.7326,VALID,48,VALID,0,
2009-12-10, 02:42:05,VALID,998.535,VALID,0,VALID,93.2874,VALID,0,VALID,21.6741,VALID,47,VALID,0,
2009-12-10, 02:43:05,VALID,998.569,VALID,0,VALID,93.1805,VALID,0,VALID,21.5961,VALID,47,VALID,0,
2009-12-10, 02:44:05,VALID,998.541,VALID,0,VALID,93.15,VALID,0,VALID,21.5376,VALID,47,VALID,0,
2009-12-10, 02:45:05,VALID,998.572,VALID,0,VALID,93.1271,VALID,0,VALID,21.4986,VALID,47,VALID,0,
2009-12-10, 02:46:05,VALID,998.581,VALID,0,VALID,93.0432,VALID,0,VALID,21.4385,VALID,47,VALID,0,
2009-12-10, 02:47:05,VALID,998.608,VALID,0,VALID,93.028,VALID,0,VALID,21.4011,VALID,47,VALID,0,
2009-12-10, 02:48:05,VALID,998.64,VALID,0,VALID,93.0432,VALID,0,VALID,21.3621,VALID,47,VALID,0,
2009-12-10, 02:49:05,VALID,998.643,VALID,0,VALID,93.2645,VALID,0,VALID,21.341,VALID,47,VALID,0,
2009-12-10, 02:50:05,VALID,998.635,VALID,0,VALID,93.5468,VALID,0,VALID,21.4596,VALID,47,VALID,0,
2009-12-10, 02:51:05,VALID,998.653,VALID,0,VALID,93.5926,VALID,0,VALID,21.4986,VALID,47,VALID,0,
2009-12-10, 02:52:05,VALID,998.66,VALID,0,VALID,93.4705,VALID,0,VALID,21.4791,VALID,47,VALID,0,
2009-12-10, 02:53:05,VALID,998.701,VALID,0,VALID,93.4705,VALID,0,VALID,21.4596,VALID,47,VALID,0,
2009-12-10, 02:54:05,VALID,998.74,VALID,0,VALID,93.44,VALID,0,VALID,21.4401,VALID,47,VALID,0,
2009-12-10, 02:55:04,VALID,998.709,VALID,0,VALID,93.5239,VALID,0,VALID,21.458,VALID,47,VALID,0,
2009-12-10, 02:56:04,VALID,998.688,VALID,0,VALID,93.6078,VALID,0,VALID,21.4986,VALID,47,VALID,0,
2009-12-10, 02:57:04,VALID,998.668,VALID,0,VALID,93.7146,VALID,0,VALID,21.5571,VALID,47,VALID,0,
2009-12-10, 02:58:04,VALID,998.663,VALID,0,VALID,93.7528,VALID,0,VALID,21.5961,VALID,47,VALID,0,
2009-12-10, 02:59:04,VALID,998.673,VALID,0,VALID,93.768,VALID,0,VALID,21.6156,VALID,47,VALID,0,
2009-12-10, 03:00:04,VALID,998.662,VALID,0,VALID,93.6688,VALID,0,VALID,21.6156,VALID,44,VALID,0,
2009-12-10, 03:01:04,VALID,998.67,VALID,0,VALID,93.6536,VALID,0,VALID,21.5766,VALID,44,VALID,0,
2009-12-10, 03:02:04,VALID,998.709,VALID,0,VALID,93.6612,VALID,0,VALID,21.5571,VALID,41,VALID,0,
2009-12-10, 03:03:04,VALID,998.689,VALID,0,VALID,93.5391,VALID,0,VALID,21.4986,VALID,27,VALID,0,
2009-12-10, 03:04:04,VALID,998.688,VALID,0,VALID,93.5773,VALID,0,VALID,21.4401,VALID,19,VALID,0,
2009-12-10, 03:05:04,VALID,998.63,VALID,0,VALID,93.6917,VALID,0,VALID,21.4986,VALID,19,VALID,0,
2009-12-10, 03:06:04,VALID,998.656,VALID,0,VALID,93.7604,VALID,0,VALID,21.5181,VALID,20,VALID,0,
2009-12-10, 03:07:04,VALID,998.67,VALID,0,VALID,93.768,VALID,0,VALID,21.5376,VALID,30,VALID,0,
2009-12-10, 03:08:04,VALID,998.65,VALID,0,VALID,93.7528,VALID,0,VALID,21.5571,VALID,30,VALID,0,
2009-12-10, 03:09:04,VALID,998.643,VALID,0,VALID,93.6536,VALID,0,VALID,21.5181,VALID,30,VALID,0,
2009-12-10, 03:10:04,VALID,998.664,VALID,0,VALID,93.5849,VALID,0,VALID,21.458,VALID,30,VALID,0,
2009-12-10, 03:11:04,VALID,998.686,VALID,0,VALID,93.5697,VALID,0,VALID,21.4206,VALID,30,VALID,0,
2009-12-10, 03:12:04,VALID,998.673,VALID,0,VALID,93.5163,VALID,0,VALID,21.3816,VALID,30,VALID,0,
2009-12-10, 03:13:04,VALID,998.685,VALID,0,VALID,93.4781,VALID,0,VALID,21.3426,VALID,30,VALID,0,
2009-12-10, 03:14:04,VALID,998.708,VALID,0,VALID,93.4781,VALID,0,VALID,21.2841,VALID,12,VALID,0,
2009-12-10, 03:15:04,VALID,998.73,VALID,0,VALID,93.7223,VALID,0,VALID,21.3621,VALID,359,VALID,0,
2009-12-10, 03:16:04,VALID,998.762,VALID,0,VALID,93.7985,VALID,0,VALID,21.4596,VALID,329,VALID,0.616797,
2009-12-10, 03:17:04,VALID,998.8,VALID,0,VALID,93.8672,VALID,0,VALID,21.5181,VALID,329,VALID,0.697656,
2009-12-10, 03:18:04,VALID,998.8,VALID,0,VALID,93.8901,VALID,0,VALID,21.575,VALID,329,VALID,0.372266,
2009-12-10, 03:19:04,VALID,998.775,VALID,0,VALID,94.0122,VALID,0,VALID,21.6546,VALID,25,VALID,0.722266,
2009-12-10, 03:20:04,VALID,998.798,VALID,0,VALID,93.9511,VALID,0,VALID,21.7131,VALID,25,VALID,0.654688,
2009-12-10, 03:21:04,VALID,998.818,VALID,0,VALID,93.7985,VALID,0,VALID,21.6546,VALID,25,VALID,0.151562,
2009-12-10, 03:22:04,VALID,998.843,VALID,0,VALID,93.8214,VALID,0,VALID,21.6351,VALID,26,VALID,0,
2009-12-10, 03:23:04,VALID,998.865,VALID,0,VALID,93.8214,VALID,0,VALID,21.6156,VALID,26,VALID,0,
2009-12-10, 03:24:04,VALID,998.945,VALID,0,VALID,93.7833,VALID,0,VALID,21.5766,VALID,26,VALID,0,
2009-12-10, 03:25:04,VALID,998.95,VALID,0,VALID,93.8138,VALID,0,VALID,21.575,VALID,26,VALID,0,
2009-12-10, 03:26:04,VALID,998.986,VALID,0,VALID,93.8138,VALID,0,VALID,21.5961,VALID,26,VALID,0,
2009-12-10, 03:27:04,VALID,998.991,VALID,0,VALID,93.8672,VALID,0,VALID,21.5961,VALID,26,VALID,0,
2009-12-10, 03:28:04,VALID,999.018,VALID,0,VALID,93.9206,VALID,0,VALID,21.6741,VALID,23,VALID,0.536328,
2009-12-10, 03:29:04,VALID,999.014,VALID,0,VALID,93.9588,VALID,0,VALID,21.692,VALID,35,VALID,0.805859,
2009-12-10, 03:30:04,VALID,999.05,VALID,0,VALID,93.913,VALID,0,VALID,21.7326,VALID,45,VALID,0.832422,
2009-12-10, 03:31:04,VALID,999.046,VALID,0,VALID,93.8977,VALID,0,VALID,21.7115,VALID,49,VALID,0.739062,
2009-12-10, 03:32:04,VALID,999.028,VALID,0,VALID,93.7146,VALID,0,VALID,21.6546,VALID,54,VALID,0.912109,
2009-12-10, 03:33:04,VALID,999.068,VALID,0,VALID,93.6765,VALID,0,VALID,21.5961,VALID,55,VALID,0.607813,
2009-12-10, 03:34:04,VALID,999.098,VALID,0,VALID,93.6307,VALID,0,VALID,21.5376,VALID,55,VALID,0.191406,
2009-12-10, 03:35:04,VALID,999.089,VALID,0,VALID,93.6688,VALID,0,VALID,21.5181,VALID,54,VALID,0.378516,
2009-12-10, 03:36:04,VALID,999.105,VALID,0,VALID,93.7757,VALID,0,VALID,21.5766,VALID,42,VALID,0.394531,
2009-12-10, 03:37:04,VALID,999.091,VALID,0,VALID,93.8062,VALID,0,VALID,21.6156,VALID,42,VALID,0.429688,
2009-12-10, 03:38:04,VALID,999.119,VALID,0,VALID,93.7985,VALID,0,VALID,21.6546,VALID,42,VALID,0.0121094,
2009-12-10, 03:39:04,VALID,999.135,VALID,0,VALID,93.7451,VALID,0,VALID,21.6351,VALID,42,VALID,0,
2009-12-10, 03:40:04,VALID,999.117,VALID,0,VALID,93.6994,VALID,0,VALID,21.5961,VALID,42,VALID,0,
2009-12-10, 03:41:04,VALID,999.129,VALID,0,VALID,93.7528,VALID,0,VALID,21.5961,VALID,42,VALID,0,
2009-12-10, 03:42:04,VALID,999.121,VALID,0,VALID,93.7146,VALID,0,VALID,21.5766,VALID,42,VALID,0,
2009-12-10, 03:43:04,VALID,999.155,VALID,0,VALID,93.768,VALID,0,VALID,21.5961,VALID,42,VALID,0,
2009-12-10, 03:44:04,VALID,999.153,VALID,0,VALID,93.6917,VALID,0,VALID,21.536,VALID,42,VALID,0,
2009-12-10, 03:45:04,VALID,999.151,VALID,0,VALID,93.646,VALID,0,VALID,21.4986,VALID,42,VALID,0,
2009-12-10, 03:46:04,VALID,999.151,VALID,0,VALID,93.6917,VALID,0,VALID,21.4775,VALID,42,VALID,0,
2009-12-10, 03:47:04,VALID,999.206,VALID,0,VALID,93.562,VALID,0,VALID,21.3995,VALID,42,VALID,0,
2009-12-10, 03:48:04,VALID,999.225,VALID,0,VALID,93.7528,VALID,0,VALID,21.4206,VALID,42,VALID,0,
2009-12-10, 03:49:04,VALID,999.231,VALID,0,VALID,93.9283,VALID,0,VALID,21.5376,VALID,38,VALID,0.367188,
2009-12-10, 03:50:04,VALID,999.254,VALID,0,VALID,93.9969,VALID,0,VALID,21.5945,VALID,38,VALID,1.02109,
2009-12-10, 03:51:04,VALID,999.236,VALID,0,VALID,93.8825,VALID,0,VALID,21.6546,VALID,32,VALID,1.26289,
2009-12-10, 03:52:04,VALID,999.2,VALID,0,VALID,93.646,VALID,0,VALID,21.5555,VALID,32,VALID,1.14414,